Iasi current weather conditions

sailwx.info

Wind from 340 at 12 knots

Air temperature -6.0° C
Visibility: greater than 0.8 NM
Dewpoint -9.0° C
Present weather: Snow. Mist.

Last reported at 2019-Jan-24 10:00 UTC.
Time now 2019-Jan-24 11:31 UTC

Location: N 47°11' E 027°37'.
View on Google Maps.

See reports from other nearby stations

  
Tides and Currents Weather Stations Pressure Air Temp Water Temp Dewpoint Dewpoint Depression Visibility Wind Speed Wind Dir Waves Ship Positions
date/time (UTC)wind fromknots sea level pressurealtimeterstation pressurevisibilityair tempwater tempwave heightnotes
2019-Jan-24 11:00 330 11 1.1-6.0 Light snow. Mist.
2019-Jan-24 10:30 330 9 1.1-6.0 Light snow. Mist.
2019-Jan-24 10:00 340 12 0.8-6.0 Snow. Mist.
2019-Jan-24 09:30 340 11 1.1-6.0 Light snow. Mist.
2019-Jan-24 09:00 330 9 1.1-7.0 Light snow. Mist.
2019-Jan-24 08:30 330 11 1.1-7.0 Snow. Mist.
2019-Jan-24 08:00 320 7 0.4-7.0 Heavy snow. Mist.
2019-Jan-24 07:30 320 8 0.8-7.0 Snow. Mist.
2019-Jan-24 07:00 320 8 1.6-7.0 Snow grains. Mist.
2019-Jan-24 06:30 310 7 1.1-7.0 Snow grains. Mist.
2019-Jan-24 06:00 320 6 1.1-7.0 Snow grains. Mist.
2019-Jan-24 05:30 330 6 1.9-7.0 Light snow. Mist.
2019-Jan-24 05:00 330 6 2.4-7.0 Light snow. Mist.
2019-Jan-24 04:30 320 8 3.8-7.0 Light snow.
2019-Jan-24 04:00 320 7 4.3-7.0 Light snow.
2019-Jan-24 03:30 320 8 3.8-7.0 Light snow.
2019-Jan-24 03:00 320 8 4.3-7.0 Light snow.
2019-Jan-24 02:30 270 5 4.3-7.0 Light snow.
2019-Jan-24 02:00 290 5 4.9-7.0
2019-Jan-24 01:30 290 6 4.3-7.0
2019-Jan-24 01:00 270 5 4.3-7.0
2019-Jan-24 00:30 330 6 5.4-7.0
2019-Jan-24 00:00 300 5 4.9-6.0
2019-Jan-23 23:30 290 5 5.4-6.0
2019-Jan-23 23:00 300 5 4.3-6.0
2019-Jan-23 22:30 300 4 4.3-6.0
2019-Jan-23 22:00 280 4 4.9-6.0
2019-Jan-23 21:30 310 6 5.4-6.0
2019-Jan-23 21:00 310 6 5.4-6.0
2019-Jan-23 20:30 280 5 5.4-6.0
2019-Jan-23 20:00 280 6 5.4-6.0
2019-Jan-23 19:30 260 6 5.4-6.0
2019-Jan-23 19:00 290 6 5.4-6.0
2019-Jan-23 18:30 280 5 5.4-5.0
2019-Jan-23 18:00 300 6 5.4-4.0
2019-Jan-23 17:30 310 6 5.4-4.0
2019-Jan-23 17:00 310 7 5.4-4.0
2019-Jan-23 16:30 300 6 5.4-4.0
2019-Jan-23 16:00 300 7 5.4-3.0
2019-Jan-23 15:30 310 7 5.4-3.0
2019-Jan-23 15:00 290 6 5.4-3.0
2019-Jan-23 14:30 300 6 4.3-3.0
2019-Jan-23 14:00 300 7 4.3-3.0
2019-Jan-23 13:30 300 7 4.3-3.0
2019-Jan-23 13:00 280 7 3.2-3.0
2019-Jan-23 12:30 290 6 1.6-3.0 Mist.
2019-Jan-23 12:00 280 6 1.3-3.0 Mist.
2019-Jan-23 11:30 290 6 0.8-2.0 Mist.
2019-Jan-23 11:00 270 6 0.8-2.0 Mist.
2019-Jan-23 10:30 260 6 0.8-3.0 Light snow. Mist.
2019-Jan-23 10:00 280 6 0.8-2.0 Light snow. Mist.
2019-Jan-23 09:30 270 5 0.5-2.0 Snow grains. Mist.
2019-Jan-23 09:00 260 7 1.1-2.0 Snow grains. Mist.
2019-Jan-23 08:30 250 6 1.3-2.0 Light snow. Mist.
2019-Jan-23 08:00 260 5 1.6-2.0 Light snow. Mist.
2019-Jan-23 07:30 260 6 1.6-2.0 Light snow. Mist.
2019-Jan-23 07:00 230 5 0.4-0.0 Snow. Mist.
2019-Jan-23 06:30 130 8 1.6 1.0 Light drizzle snow. Patches of fog.
2019-Jan-23 06:00 110 9 1.1-0.0 Light drizzle snow. Mist.
2019-Jan-23 05:30 120 11 2.2-0.0 Light drizzle snow. Mist.
2019-Jan-23 05:00 110 8 2.2-0.0 Snow. Mist.
2019-Jan-23 04:30 110 9 2.7-0.0 Light snow. Mist.
2019-Jan-23 04:00 110 11 2.2-0.0 Light snow. Mist.
2019-Jan-23 03:30 110 12 1.1-0.0 Light snow. Mist.
2019-Jan-23 03:00 110 12 1.3-0.0 Light snow. Light low drifting snow. Mist.
2019-Jan-23 02:30 110 13 1.0-1.0 Snow. Light low drifting snow. Mist.
2019-Jan-23 02:00 110 13 1.1-1.0 Snow. Light low drifting snow. Mist.
2019-Jan-23 01:30 110 13 1.0-1.0 Snow. Light low drifting snow. Mist.
2019-Jan-23 01:00 110 13 1.0-2.0 Snow. Light low drifting snow. Mist.
2019-Jan-23 00:30 110 13 1.0-2.0 Snow. Light low drifting snow. Mist.
2019-Jan-23 00:00 110 13 1.1-2.0 Snow. Light low drifting snow. Mist.
2019-Jan-22 23:30 110 13 1.1-2.0 Snow. Light low drifting snow. Mist.
2019-Jan-22 23:00 110 13 1.1-3.0 Snow. Light low drifting snow. Mist.
2019-Jan-22 22:30 110 13 1.3-3.0 Snow. Light low drifting snow. Mist.
2019-Jan-22 22:00 110 13 1.3-3.0 Snow. Light low drifting snow. Mist.
2019-Jan-22 21:30 110 13 1.3-3.0 Snow. Light low drifting snow. Mist.
2019-Jan-22 21:00 110 13 1.3-3.0 Snow. Light low drifting snow. Mist.
2019-Jan-22 20:30 110 13 1.1-4.0 Snow. Light low drifting snow. Mist.
2019-Jan-22 20:00 110 13 1.6-4.0 Snow. Light low drifting snow. Mist.
2019-Jan-22 19:30 110 13 1.3-4.0 Snow. Light low drifting snow. Mist.
2019-Jan-22 19:00 110 13 1.1-4.0 Snow. Light low drifting snow. Mist.
2019-Jan-22 18:30 110 13 1.3-4.0 Snow. Light low drifting snow. Mist.
2019-Jan-22 18:00 110 12 1.0-4.0 Snow. Light low drifting snow. Mist.
2019-Jan-22 17:30 110 13 1.3-4.0 Light snow. Light low drifting snow. Mist.
2019-Jan-22 17:00 100 9 0.8-4.0 Light snow. Light low drifting snow. Mist.
2019-Jan-22 16:30 110 11 0.9-4.0 Light snow. Light low drifting snow. Mist.
2019-Jan-22 16:00 100 11 1.1-4.0 Snow. Light low drifting snow. Mist.
2019-Jan-22 15:30 110 11 1.1-4.0 Light snow. Light low drifting snow. Mist.
2019-Jan-22 15:00 110 11 2.7-4.0 Light snow. Mist.
2019-Jan-22 14:30 110 13 1.6-4.0 Light snow. Light low drifting snow. Mist.
2019-Jan-22 14:00 110 14 1.5-4.0 Light snow. Light low drifting snow. Mist.
2019-Jan-22 13:30 120 14 2.1-4.0 Light snow. Light low drifting snow. Mist.
2019-Jan-22 13:00 110 15 2.2-4.0 Light snow. Light low drifting snow. Mist.
2019-Jan-22 12:30 120 17 2.7-4.0 Light snow. Mist.
2019-Jan-22 12:00 110 15 2.7-4.0 Light snow. Light low drifting snow. Mist.
2019-Jan-22 11:30 110 13 2.3-4.0 Light snow. Mist.